SCP
2 3 3 2 2 2 2 2 2 2 1 1 1 1 1 1 1 1 1 1 1 0 0 0 0 0 0 0 0 0 0 0 0 0 0 0 0 0 0 1 1 1 1
2 3 3 2 2 2 2 3 3 2 2 1 1 1 1 1 1 1 1 1 1 0 0 0 0 1 1 1 0 0 0 0 0 0 0 0 0 0 0 0 0 1 1
2 2 2 2 2 2 2 4 4 3 2 2 2 1 1 1 1 1 1 1 0 0 0 0 1 1 1 1 1 1 1 1 1 1 0 0 0 0 0 0 0 0 0
1 1 1 1 1 2 3 4 4 4 3 2 2 2 2 1 1 1 1 1 1 1 1 1 1 1 1 1 1 1 1 1 1 1 0 0 0 0 0 0 0 0 0
1 1 1 1 1 2 3 3 4 4 3 2 2 2 2 1 1 1 1 1 1 1 1 1 1 1 1 1 1 1 1 1 1 1 1 1 1 1 1 1 1 1 0
1 1 1 1 1 2 2 3 4 4 3 3 2 2 2 1 1 1 1 1 1 1 1 1 1 1 1 1 1 1 1 1 1 1 1 1 1 1 1 1 1 1 1
2 2 2 2 2 2 2 3 4 4 4 3 3 3 2 2 2 1 1 1 1 1 1 1 1 1 1 1 1 1 1 1 1 1 1 1 1 1 1 1 1 1 1
2 2 3 3 2 2 2 3 4 4 4 4 3 3 3 3 2 2 1 1 1 1 1 1 1 1 1 1 1 1 1 2 2 1 1 1 1 1 1 1 1 1 1
4 4 4 3 3 2 3 3 4 4 4 4 4 3 3 3 3 2 2 2 1 2 2 1 1 1 1 1 1 1 1 1 1 1 1 1 1 1 1 1 1 1 1
5 5 4 4 4 3 3 3 4 4 4 4 4 4 4 4 3 3 3 2 2 2 2 1 1 1 1 1 1 1 1 1 1 1 1 1 1 1 1 1 1 1 1
5 4 5 5 4 3 3 3 3 3 3 3 3 4 4 4 3 2 3 3 2 2 2 1 1 1 1 1 1 1 1 1 1 1 1 1 1 1 1 1 1 1 1
4 4 4 4 4 4 4 3 3 3 3 3 4 5 5 4 3 2 2 2 2 2 2 2 1 1 1 1 1 1 1 1 1 1 1 1 1 1 1 1 1 1 1
4 4 4 4 4 4 4 3 3 3 4 4 5 6 6 4 3 2 1 1 1 2 2 2 2 2 2 2 1 1 1 1 1 1 1 1 1 2 2 2 1 1 2
4 4 4 4 4 5 4 3 3 3 3 4 4 5 5 4 2 1 1 1 1 2 2 2 2 2 2 2 2 1 1 1 1 1 1 1 1 2 2 2 2 2 1
5 5 4 4 4 4 4 3 3 3 3 3 3 3 3 3 2 1 1 1 1 2 2 2 2 2 2 2 2 1 1 1 1 1 1 1 1 1 1 1 1 2 2
5 5 4 3 3 4 4 4 4 4 3 3 3 2 2 2 2 2 1 1 1 2 3 3 2 2 2 2 1 1 1 1 1 1 1 1 1 1 1 1 1 1 1
5 4 3 3 3 3 4 5 5 4 4 3 3 2 2 2 2 2 1 1 1 2 2 3 2 2 2 1 1 1 1 1 1 1 2 2 2 2 2 1 1 1 1
3 3 2 2 2 3 4 5 5 5 4 3 3 2 2 2 2 2 1 1 2 2 2 2 2 2 2 1 1 1 1 1 1 1 2 2 2 2 2 2 2 2 2
3 2 2 3 3 3 3 4 5 5 4 4 3 2 2 2 2 2 1 1 2 2 3 3 2 2 1 1 0 1 1 1 1 1 1 1 1 1 1 1 2 2 2
4 4 3 3 3 3 3 4 5 5 5 5 4 3 2 2 2 2 1 2 2 3 3 3 3 2 1 1 0 0 1 1 1 1 1 1 1 0 0 1 1 1 1
7 6 4 3 3 3 3 4 4 5 5 6 5 4 3 2 2 2 2 2 3 4 4 4 3 2 1 1 1 1 1 1 1 1 1 0 0 0 0 0 1 1 0
8 7 5 4 3 4 4 4 4 5 6 6 4 3 3 2 2 2 3 4 4 4 4 3 2 2 1 1 1 1 1 1 1 1 0 0 0 0 0 0 0 0 0
7 6 5 5 5 4 5 5 5 5 5 5 4 3 3 3 3 3 3 4 4 4 3 2 2 1 1 1 1 1 0 0 0 0 0 0 0 0 0 0 0 0 0
5 5 5 6 6 6 5 5 5 4 4 4 4 4 3 3 3 3 3 4 3 3 2 1 1 1 1 1 1 0 0 0 0 0 0 0 0 0 0 0 0 0 0
4 4 5 6 6 7 6 6 5 4 4 3 3 3 3 3 3 3 3 2 2 2 1 1 1 1 1 1 0 0 0 0 0 0 0 0 0 0 0 0 0 0 0
3 4 5 5 5 6 7 6 5 4 3 3 3 3 3 3 3 3 2 1 1 1 1 1 1 1 0 0 0 0 0 0 0 0 0 0 0 0 0 0 0 0 0
Wind_Speed
6 6 7 7 6 6 7 7 7 6 5 3 3 2 2 1 1 2 3 3 3 3 3 2 1 1 1 1 1 1 1 1 1 1 1 1 1 1 1 2 2 3 4
5 6 7 7 8 8 8 7 7 7 6 4 3 2 2 2 2 1 2 3 3 3 3 3 2 2 1 1 1 1 1 0 1 2 1 1 2 1 1 1 2 3 2
8 7 8 8 7 8 9 8 7 6 6 5 3 2 1 1 1 1 1 2 3 3 3 3 3 2 2 2 2 2 2 2 1 1 2 2 2 1 1 1 2 2 2
8 8 8 8 9 9 8 7 7 7 6 6 5 5 4 3 3 2 2 2 3 3 3 4 3 3 2 3 3 3 2 3 2 1 1 2 2 2 1 1 1 2 2
8 9 9 9 8 7 7 6 7 6 6 6 6 5 4 3 2 2 2 2 2 3 3 3 3 3 3 3 3 2 3 3 3 2 2 1 1 2 2 2 2 1 2
8 7 7 6 6 6 6 6 6 6 5 6 6 6 6 4 3 3 3 2 2 2 3 3 3 3 2 3 3 3 3 3 3 2 2 3 2 2 3 3 2 2 2
8 8 8 8 7 7 7 7 7 6 6 6 6 6 6 6 5 4 4 3 2 2 3 3 3 2 3 3 2 2 2 3 3 3 2 2 3 2 3 3 2 2 2
7 8 9 9 8 8 8 7 7 6 6 7 6 6 5 4 4 4 4 3 3 3 2 3 3 3 3 3 2 2 2 2 3 3 2 2 2 2 3 3 3 2 1
6 7 7 8 8 8 8 8 8 7 7 6 6 5 5 5 4 4 3 3 2 2 3 3 3 2 2 2 2 1 1 1 2 2 2 2 2 2 3 3 3 3 2
3 4 5 6 7 7 6 6 6 6 6 6 5 4 4 5 4 3 3 3 3 2 2 3 3 2 2 1 1 1 1 1 1 1 1 2 2 2 2 2 2 3 3
2 2 3 4 4 5 5 6 6 5 5 5 5 4 4 4 3 3 3 3 2 2 3 3 3 2 2 2 2 1 1 1 1 1 1 2 1 1 1 1 2 2 3
1 2 3 4 4 5 5 5 5 5 4 4 4 4 3 3 3 2 2 2 2 2 2 2 2 2 2 1 2 2 1 1 1 1 1 1 1 1 1 1 2 2 2
2 3 4 4 5 4 5 4 4 4 4 4 4 4 3 3 3 2 1 1 2 2 2 3 2 2 1 1 1 1 1 1 1 1 1 1 0 1 1 1 1 1 2
2 3 3 3 4 5 5 4 4 4 4 4 4 3 3 3 2 2 2 2 2 2 2 2 2 2 1 1 1 1 1 0 0 0 0 1 1 1 2 1 1 1 1
2 3 3 3 4 4 4 4 4 4 4 4 3 3 2 2 2 2 2 2 2 2 2 2 2 2 1 1 1 1 1 1 0 1 1 1 1 1 0 0 1 1 1
2 3 4 4 4 3 4 4 4 4 4 4 4 3 4 3 3 3 3 3 2 2 2 2 2 2 1 2 2 2 1 1 1 1 1 1 1 2 2 2 2 3 2
3 3 3 3 3 2 3 4 4 4 5 4 3 3 4 3 3 3 4 4 3 3 3 2 3 2 2 4 3 3 2 1 1 1 1 1 2 2 1 3 4 3 3
3 3 3 3 2 3 3 4 4 4 4 4 4 3 3 3 3 3 3 3 3 3 2 2 2 2 3 4 4 4 3 2 2 1 1 1 2 2 2 2 3 3 4
3 3 4 4 3 3 3 5 5 5 4 4 3 3 4 4 4 4 3 3 3 3 2 2 2 2 2 3 4 4 3 3 3 3 3 3 2 4 4 3 3 4 4
3 4 4 5 5 4 5 5 5 4 3 3 3 3 3 4 4 4 3 3 3 3 3 3 3 2 2 3 4 4 3 3 3 3 4 6 5 6 5 4 4 4 3
4 4 5 4 3 4 5 5 4 3 2 3 3 4 3 4 4 4 3 3 4 4 4 4 3 3 3 4 5 5 3 3 3 3 3 4 7 7 6 5 4 4 4
4 4 4 4 3 4 5 5 3 2 3 4 4 4 4 4 4 5 4 4 4 5 4 3 3 3 3 4 4 5 5 5 4 3 3 4 7 8 8 6 7 7 6
4 4 4 4 4 3 4 4 2 2 4 5 4 4 5 4 4 5 4 4 3 3 3 3 3 2 3 3 5 6 7 7 5 4 7 7 8 8 7 9 9 7 5
4 4 5 5 4 3 4 3 3 3 4 5 5 5 5 5 5 4 3 3 3 3 3 3 3 2 3 3 3 3 4 6 6 5 7 9 10 8 8 7 6 5 5
3 4 5 5 4 3 4 4 3 4 5 5 5 5 5 5 5 5 4 3 3 2 3 2 3 3 2 1 3 3 3 3 4 4 5 5 5 5 5 5 5 5 4
4 4 4 4 4 4 4 4 3 4 5 5 4 4 4 4 4 5 6 10 8 9 8 6 4 3 4 6 7 7 8 7 7 6 5 4 4 4 4 4 4 4 4
Wind_Direction
202 186 182 181 181 185 186 189 185 174 156 146 157 165 193 188 189 197 197 194 194 187 175 188 187 181 191 208 197 180 165 182 142 113 20 354 334 242 235 224 220 226 223
194 191 185 185 188 193 193 191 191 179 173 170 164 166 163 176 182 188 196 201 198 193 192 189 198 188 188 190 189 172 142 122 131 141 112 6 348 336 270 221 219 230 228
203 201 194 190 189 196 194 192 190 187 180 167 140 119 99 82 129 190 212 218 206 202 201 195 196 197 194 202 210 190 179 181 175 167 154 154 225 304 318 262 226 223 225
201 199 198 195 195 199 195 186 183 189 183 168 173 179 185 197 206 198 201 217 215 212 207 204 200 202 205 208 216 201 189 179 194 181 184 175 167 173 300 314 275 244 237
202 201 201 201 197 189 187 186 184 186 182 181 183 184 196 201 191 185 198 219 227 220 213 204 205 209 210 213 214 205 194 192 193 185 172 163 172 191 195 263 295 293 251
203 202 196 188 187 180 181 183 184 189 183 186 184 188 193 192 191 196 203 224 229 224 223 212 212 217 217 222 221 216 202 200 196 195 188 179 183 191 192 223 254 275 281
200 196 187 186 187 184 185 180 179 188 183 188 194 195 197 194 201 202 205 212 222 226 229 222 217 223 223 225 216 209 207 198 198 203 209 205 210 189 184 195 227 252 287
204 201 194 190 190 188 184 177 181 191 189 192 199 196 192 193 201 203 198 204 216 225 216 216 223 226 220 220 205 205 211 198 209 215 206 209 222 203 198 194 190 224 275
208 203 193 187 185 187 187 183 185 191 191 193 196 191 189 191 199 201 201 208 215 217 200 199 207 213 199 194 178 187 208 183 206 216 208 215 230 216 216 209 197 194 226
223 203 188 184 182 184 179 171 178 188 189 186 191 192 189 194 195 192 207 209 215 212 185 183 182 183 176 177 163 163 167 175 220 216 212 229 237 221 209 207 209 202 201
228 206 181 172 158 150 153 161 169 174 177 180 182 184 181 179 179 197 214 204 200 193 187 180 176 173 169 172 162 180 182 189 228 235 224 252 243 225 214 195 197 198 193
197 144 131 127 127 135 143 154 162 166 174 169 167 173 164 159 168 189 212 191 189 185 174 164 153 164 165 168 180 197 190 187 221 245 235 271 266 242 236 203 210 207 199
95 106 117 130 137 141 141 149 156 159 153 147 151 153 153 152 159 162 186 180 169 156 150 151 152 149 149 159 193 197 191 198 232 236 229 270 228 248 239 220 225 215 192
87 98 107 124 134 138 141 148 149 142 139 134 143 151 158 162 162 148 147 146 139 134 135 142 142 134 140 159 166 151 141 144 294 290 269 273 225 239 235 227 229 200 179
97 111 112 118 123 127 134 139 137 133 134 135 141 146 134 125 117 117 119 114 114 118 120 117 106 107 122 127 141 158 149 134 36 16 1 7 63 68 134 152 165 154 151
151 128 113 117 121 128 131 130 133 131 129 136 140 129 122 122 121 119 114 107 96 88 98 106 103 95 83 83 106 126 117 108 83 28 7 17 28 46 70 75 91 117 142
147 138 132 126 121 123 123 129 132 127 129 133 132 127 126 127 126 123 115 114 107 94 91 99 104 97 66 68 76 90 109 96 61 24 18 22 29 39 49 64 72 69 72
144 135 124 106 88 93 109 114 114 121 126 126 124 121 124 121 118 113 111 109 107 108 110 102 96 93 70 67 74 84 91 76 45 30 43 57 26 40 69 81 72 60 49
145 140 130 117 110 103 107 111 113 118 122 128 135 135 135 132 123 116 114 112 111 104 94 87 87 87 62 62 75 91 92 76 49 38 40 50 48 41 64 84 79 63 46
120 120 112 112 114 111 112 110 110 115 126 136 139 132 133 135 131 128 122 111 109 105 97 83 76 87 75 56 68 89 101 89 68 48 42 49 52 49 63 81 82 73 48
108 108 109 105 103 105 110 109 110 118 123 115 111 109 113 122 122 118 114 113 108 103 94 86 75 72 69 63 60 73 98 104 89 69 53 46 51 55 58 70 76 80 84
97 96 97 88 79 88 105 107 103 100 99 101 102 104 103 105 110 111 107 104 107 105 97 93 79 63 58 59 60 69 80 95 99 85 67 60 61 63 62 64 61 66 74
99 89 95 90 79 78 98 107 99 99 105 106 104 99 92 87 98 109 110 103 104 109 107 106 99 74 61 59 60 71 77 86 89 85 82 73 67 68 64 57 60 65 69
102 101 99 92 77 68 76 92 101 101 109 109 104 99 95 87 80 83 89 97 101 111 114 114 112 97 79 68 66 73 81 84 85 82 78 73 68 66 61 57 57 57 60
99 102 108 106 93 79 75 75 82 98 100 98 95 94 96 100 91 79 63 75 74 110 130 132 129 121 112 74 93 103 96 97 97 95 80 70 65 63 57 55 55 52 53
111 103 97 98 95 88 78 70 74 93 103 100 98 100 105 104 104 104 83 57 67 71 74 80 96 91 96 101 95 88 85 87 96 92 84 78 77 75 67 62 57 50 47